Flag for Austria Weather past 2 weeks in Melk, Lower Austria, Austria

Now
49 °F

Cool.


Feels Like: 49 °F
Forecast: 35 / 50 °F
Wind: 1 mph from West

Location: Amstetten

Current Time: Oct 23, 2014 at 9:32:57 PM

Latest Report: Oct 23, 2014 at 9:00 PM


Visibility: N/A

Pressure: 30.13 "Hg

Humidity: 94%

Dew point: 47 °F

Location of MelkLocation

Historic Weather in Melk — Graph

°F

Melk temperature yesterday

Maximum temperature yesterday: 54 °F (at 12:00 AM)
Minimum temperature yesterday: 42 °F (at 11:00 PM)
Average temperature yesterday: 45 °F

Past Weeks' High & Low Weather Summary

 TemperatureHumidityPressure
High72 °F (Oct 12, 3:00 PM)100% (Oct 10, 8:00 AM)30.32 "Hg (Oct 10, 8:00 AM)
Low40 °F (Oct 23, 2:00 AM)56% (Oct 14, 3:00 PM)29.63 "Hg (Oct 21, 11:00 PM)
Average56 °F91%29.96 "Hg
* Reported Oct 8 8:00 PM — Oct 23 8:00 PM, Melk, Weather by CustomWeather, © 2014

Note: Actual official high and low records may vary slightly from our data, if they occured in-between our weather recording intervals... More about our weather records

Advertising

Melk weather history for previous 24 hours

 ConditionsComfort  
Time TempWeatherWind HumidityBarometerVisibility
8:00 PM
Oct 23
50 °FCool.2 mph94%30.11 "HgN/A
7:00 PM49 °FCool.2 mph95%30.09 "HgN/A
6:00 PM50 °FCool.2 mph92%30.07 "HgN/A
5:00 PM50 °FCool.3 mph95%30.05 "HgN/A
4:00 PM50 °FFog.2 mph93%30.02 "HgN/A
3:00 PM50 °FFog.2 mph91%30.00 "HgN/A
2:00 PM51 °FCool.2 mph92%29.96 "HgN/A
1:00 PM51 °FSprinkles. Cloudy.1 mph94%29.96 "HgN/A
12:00 PM51 °FCool.2 mph91%29.95 "HgN/A
11:00 AM50 °FCool.2 mph92%29.92 "HgN/A
10:00 AM49 °FCool.No wind98%29.90 "HgN/A
9:00 AM47 °FFog.1 mph97%29.86 "HgN/A
8:00 AM46 °FLight rain. Overcast.2 mph99%29.83 "HgN/A
7:00 AM45 °FFog.2 mph97%29.82 "HgN/A
6:00 AM43 °FFog.1 mph97%29.82 "HgN/A
5:00 AM42 °FQuite cool.2 mph96%29.83 "HgN/A
4:00 AM42 °FSprinkles. Overcast.3 mph94%29.83 "HgN/A
3:00 AM41 °FFog.5 mph93%29.84 "HgN/A
2:00 AM40 °FQuite cool.6 mph93%29.85 "HgN/A
1:00 AM41 °FFog.5 mph93%29.85 "HgN/A
12:00 AM41 °FSprinkles. Overcast.5 mph93%29.86 "HgN/A
11:00 PM
Oct 22
42 °FQuite cool.6 mph91%29.87 "HgN/A
10:00 PM42 °FQuite cool.5 mph90%29.86 "HgN/A
9:00 PM43 °FFog.5 mph90%29.86 "HgN/A
Weather by CustomWeather, © 2014

See weather overviewHow to use our weather pages